Regional Weather Roundup
Issued by NWS Albany, NY

Home | Current Version | Previous Version | Text Only | Print | Product List | Glossary On
Versions: 1 2 3 4 5 6 7 8 9 10 11 12 13 14 15 16 17 18 19 20 21 22 23 24 25 26 27 28 29 30 31 32 33 34 35 36 37 38 39 40 41 42 43 44 45 46 47 48 49 50
000
ASUS41 KALY 151310
RWRALY

NEW YORK STATE HOURLY WEATHER ROUNDUP
NATIONAL WEATHER SERVICE ALBANY NY
900 AM EDT MON SEP 15 2014

NOTE: "FAIR" INDICATES FEW OR NO CLOUDS BELOW 12,000 FEET WITH NO
SIGNIFICANT WEATHER AND/OR NO OBSTRUCTIONS TO VISIBILITY.

NYZ032-033-038>043-046>054-057>066-NYZ062>081-151400-
EAST


CITY           SKY/WX    TMP DP  RH WIND       PRES   REMARKS
ALBANY         PTSUNNY   47  45  93 E3        30.27R FOG
GLENS FALLS    SUNNY     48  45  89 S5        30.25F
POUGHKEEPSIE   SUNNY     53  47  79 CALM      30.24F
NEWBURGH       SUNNY    N/A N/A N/A CALM      30.26F
MONTGOMERY     MOSUNNY   53  47  79 CALM      30.25S
WHITE PLAINS   SUNNY     58  44  60 NE3       30.23F
ISLIP          MOSUNNY   60  50  69 N9        30.22S
NEW YORK CITY  MOSUNNY   60  47  61 NE10      30.24S
CENTRAL PARK   SUNNY     59  42  53 VRB7      30.27S
$$

NYZ005>009-017-018-044>046-055-056-151400-
CENTRAL


CITY           SKY/WX    TMP DP  RH WIND       PRES   REMARKS
FULTON         PTSUNNY   50  47  89 VRB3      30.22F
SYRACUSE       PTSUNNY   52  45  77 E5        30.23F
ROME           MOSUNNY   48  44  86 SE5       30.26F
ELMIRA         MOSUNNY   52  49  89 CALM      30.24F
BINGHAMTON     MOSUNNY   52  44  74 SW6       30.24S
MONTICELLO     CLOUDY    48  45  87 W3        30.27R
$$

NYZ026>034-041>043-151400-
NORTH


CITY           SKY/WX    TMP DP  RH WIND       PRES   REMARKS
WATERTOWN      CLOUDY    53  41  63 S6        30.21F
FORT DRUM      NOT AVBL
MASSENA        CLOUDY    49  45  86 S5        30.22S
SARANAC LAKE   CLOUDY    39  39 100 S6        30.21S WCI  35
PLATTSBURGH    SUNNY     49  43  80 VRB3      30.23F
$$

NYZ001>004-010>016-019>021-151400-
WEST


CITY           SKY/WX    TMP DP  RH WIND       PRES   REMARKS
NIAGARA FALLS  MOSUNNY   56  49  77 CALM      30.20F
BUFFALO        PTSUNNY   56  47  71 S5        30.20F
DUNKIRK        MOSUNNY   56  48  74 S8        30.21F
JAMESTOWN      SUNNY     52  45  76 S5        30.23S
WELLSVILLE     SUNNY     51  45  79 CALM      30.25S
ROCHESTER      PTSUNNY   55  48  77 SW8       30.21F
PENN YAN       CLOUDY    54  46  74 S9        30.23F
$$

             KEY
       WCI = WIND CHILL INDEX
       VSB = VISIBILITY
       HX  = HEAT INDEX
$$


USA.gov is the U.S. government's official web portal to all federal, state and local government web resources and services.